QPF
0.00 0.01 0.02 0.04 0.05 0.03 0.02 0.02 0.02 0.01 0.00 0.01 0.02 0.01 0.02 0.02 0.02 0.01 0.02 0.05 0.04 0.02 0.02 0.03 0.04 0.03 0.03 0.03 0.03 0.04 0.08 0.12 0.19 0.15 0.12 0.06 0.06 0.06 0.07 0.06 0.06 0.07 0.07 0.08 0.08 0.06 0.05 0.05 0.05
0.02 0.03 0.05 0.06 0.05 0.03 0.03 0.03 0.02 0.01 0.01 0.01 0.00 0.00 0.01 0.01 0.01 0.01 0.03 0.03 0.02 0.02 0.02 0.03 0.04 0.04 0.04 0.04 0.04 0.05 0.09 0.11 0.14 0.14 0.09 0.07 0.07 0.08 0.07 0.06 0.06 0.07 0.08 0.08 0.09 0.09 0.06 0.04 0.04
0.02 0.04 0.07 0.08 0.06 0.03 0.03 0.03 0.01 0.01 0.01 0.00 0.00 0.00 0.00 0.01 0.01 0.01 0.01 0.03 0.03 0.03 0.04 0.05 0.05 0.04 0.03 0.04 0.05 0.06 0.09 0.10 0.10 0.09 0.08 0.07 0.07 0.07 0.06 0.06 0.06 0.07 0.08 0.07 0.07 0.08 0.07 0.05 0.06
0.02 0.04 0.07 0.06 0.05 0.04 0.03 0.02 0.01 0.00 0.00 0.00 0.00 0.01 0.01 0.01 0.00 0.01 0.01 0.02 0.03 0.06 0.08 0.08 0.06 0.04 0.03 0.03 0.03 0.04 0.05 0.06 0.07 0.08 0.08 0.07 0.06 0.06 0.06 0.05 0.05 0.06 0.07 0.07 0.06 0.07 0.05 0.04 0.05
0.02 0.05 0.07 0.04 0.04 0.04 0.04 0.02 0.01 0.01 0.00 0.00 0.00 0.03 0.04 0.02 0.01 0.01 0.02 0.02 0.02 0.04 0.08 0.12 0.10 0.05 0.03 0.02 0.03 0.04 0.05 0.06 0.06 0.06 0.07 0.07 0.07 0.06 0.06 0.05 0.05 0.04 0.05 0.06 0.05 0.04 0.04 0.04 0.04
0.03 0.06 0.07 0.04 0.05 0.05 0.05 0.02 0.01 0.00 0.00 0.01 0.00 0.02 0.06 0.05 0.02 0.02 0.01 0.02 0.02 0.02 0.04 0.09 0.11 0.08 0.06 0.03 0.04 0.05 0.05 0.06 0.05 0.05 0.05 0.06 0.10 0.13 0.11 0.07 0.06 0.05 0.05 0.04 0.04 0.04 0.04 0.04 0.04
0.03 0.04 0.05 0.04 0.04 0.03 0.01 0.01 0.01 0.01 0.00 0.00 0.00 0.01 0.04 0.07 0.03 0.02 0.01 0.02 0.02 0.02 0.04 0.05 0.06 0.07 0.07 0.05 0.03 0.03 0.04 0.04 0.04 0.04 0.04 0.05 0.07 0.15 0.17 0.09 0.08 0.08 0.08 0.07 0.05 0.04 0.04 0.04 0.04
0.02 0.03 0.03 0.03 0.03 0.02 0.01 0.00 0.00 0.00 0.00 0.00 0.00 0.01 0.02 0.04 0.03 0.03 0.03 0.03 0.04 0.05 0.06 0.04 0.03 0.04 0.04 0.04 0.03 0.02 0.02 0.02 0.02 0.03 0.03 0.03 0.03 0.06 0.08 0.07 0.07 0.09 0.16 0.17 0.10 0.05 0.04 0.04 0.04
0.02 0.02 0.02 0.02 0.01 0.01 0.01 0.01 0.00 0.00 0.00 0.00 0.00 0.01 0.01 0.02 0.03 0.03 0.05 0.05 0.04 0.06 0.05 0.03 0.02 0.01 0.02 0.02 0.02 0.02 0.01 0.01 0.02 0.02 0.01 0.02 0.02 0.03 0.05 0.06 0.05 0.05 0.07 0.08 0.08 0.06 0.05 0.03 0.02
0.03 0.02 0.01 0.01 0.00 0.00 0.01 0.01 0.00 0.00 0.00 0.01 0.01 0.01 0.01 0.02 0.01 0.01 0.02 0.03 0.02 0.02 0.03 0.03 0.03 0.02 0.02 0.01 0.01 0.01 0.01 0.00 0.01 0.01 0.01 0.01 0.01 0.02 0.03 0.04 0.05 0.05 0.04 0.04 0.05 0.04 0.01 0.01 0.01
0.01 0.01 0.01 0.01 0.00 0.00 0.00 0.00 0.00 0.00 0.00 0.01 0.01 0.01 0.01 0.02 0.02 0.02 0.01 0.01 0.02 0.02 0.03 0.03 0.02 0.02 0.01 0.01 0.01 0.01 0.01 0.01 0.01 0.01 0.00 0.01 0.01 0.01 0.02 0.03 0.05 0.06 0.03 0.03 0.05 0.03 0.01 0.01 0.01
0.01 0.01 0.01 0.00 0.00 0.00 0.00 0.00 0.00 0.00 0.00 0.01 0.01 0.01 0.01 0.01 0.01 0.02 0.01 0.02 0.02 0.02 0.03 0.03 0.02 0.03 0.02 0.01 0.01 0.01 0.00 0.00 0.01 0.00 0.00 0.01 0.01 0.01 0.02 0.02 0.03 0.03 0.02 0.03 0.05 0.04 0.02 0.02 0.01
0.01 0.01 0.01 0.01 0.01 0.00 0.00 0.00 0.01 0.01 0.01 0.01 0.01 0.01 0.01 0.01 0.01 0.01 0.02 0.02 0.02 0.02 0.02 0.02 0.03 0.04 0.03 0.03 0.02 0.01 0.01 0.00 0.00 0.00 0.00 0.01 0.02 0.01 0.03 0.02 0.01 0.01 0.01 0.01 0.01 0.02 0.03 0.02 0.02
0.02 0.02 0.02 0.03 0.02 0.00 0.00 0.00 0.00 0.02 0.01 0.01 0.01 0.01 0.01 0.01 0.01 0.01 0.01 0.01 0.01 0.01 0.01 0.02 0.03 0.04 0.04 0.03 0.03 0.02 0.01 0.01 0.01 0.00 0.00 0.02 0.04 0.03 0.03 0.01 0.01 0.01 0.01 0.00 0.01 0.01 0.02 0.02 0.03
0.03 0.04 0.04 0.03 0.02 0.01 0.00 0.01 0.01 0.01 0.01 0.01 0.01 0.01 0.01 0.01 0.01 0.01 0.01 0.01 0.01 0.01 0.01 0.02 0.03 0.03 0.04 0.04 0.05 0.04 0.02 0.03 0.02 0.01 0.00 0.01 0.04 0.04 0.02 0.01 0.01 0.01 0.01 0.01 0.01 0.01 0.02 0.02 0.03
0.03 0.04 0.05 0.03 0.02 0.01 0.01 0.02 0.02 0.01 0.01 0.02 0.02 0.01 0.01 0.01 0.01 0.01 0.01 0.01 0.00 0.01 0.01 0.01 0.01 0.02 0.03 0.04 0.04 0.06 0.04 0.03 0.03 0.02 0.01 0.01 0.02 0.03 0.02 0.01 0.01 0.01 0.02 0.01 0.01 0.01 0.02 0.02 0.02
0.03 0.03 0.04 0.04 0.02 0.02 0.01 0.01 0.02 0.02 0.02 0.01 0.02 0.01 0.01 0.01 0.01 0.01 0.01 0.01 0.01 0.01 0.00 0.00 0.00 0.01 0.02 0.02 0.01 0.03 0.02 0.02 0.02 0.02 0.01 0.01 0.01 0.02 0.02 0.02 0.01 0.01 0.02 0.01 0.01 0.01 0.01 0.01 0.01
0.04 0.04 0.04 0.04 0.03 0.01 0.00 0.01 0.01 0.02 0.02 0.02 0.02 0.02 0.01 0.01 0.01 0.00 0.01 0.01 0.01 0.00 0.00 0.00 0.00 0.00 0.00 0.01 0.01 0.02 0.02 0.03 0.03 0.02 0.01 0.01 0.01 0.01 0.02 0.02 0.02 0.02 0.01 0.01 0.01 0.01 0.01 0.01 0.01
0.03 0.04 0.04 0.03 0.02 0.01 0.01 0.01 0.01 0.01 0.01 0.02 0.02 0.02 0.01 0.00 0.00 0.00 0.01 0.00 0.01 0.01 0.00 0.00 0.00 0.01 0.01 0.01 0.02 0.02 0.02 0.03 0.04 0.03 0.02 0.01 0.01 0.01 0.02 0.02 0.02 0.02 0.01 0.02 0.02 0.01 0.01 0.00 0.00
0.03 0.03 0.03 0.03 0.02 0.01 0.01 0.00 0.01 0.00 0.00 0.01 0.01 0.01 0.01 0.01 0.00 0.01 0.01 0.00 0.00 0.00 0.00 0.00 0.00 0.00 0.01 0.01 0.02 0.02 0.02 0.01 0.02 0.02 0.02 0.01 0.01 0.01 0.01 0.02 0.02 0.02 0.02 0.01 0.02 0.01 0.01 0.00 0.01
0.02 0.02 0.01 0.01 0.01 0.01 0.01 0.01 0.00 0.00 0.00 0.00 0.00 0.01 0.01 0.01 0.01 0.01 0.01 0.00 0.00 0.00 0.00 0.00 0.00 0.00 0.01 0.01 0.02 0.02 0.02 0.01 0.01 0.01 0.02 0.01 0.01 0.01 0.01 0.01 0.02 0.03 0.02 0.02 0.02 0.01 0.01 0.01 0.01
0.02 0.02 0.01 0.01 0.01 0.01 0.01 0.01 0.01 0.00 0.00 0.00 0.01 0.01 0.01 0.01 0.01 0.01 0.02 0.01 0.01 0.00 0.00 0.00 0.00 0.00 0.01 0.01 0.02 0.02 0.02 0.02 0.02 0.02 0.02 0.01 0.01 0.01 0.01 0.01 0.01 0.01 0.02 0.03 0.02 0.02 0.01 0.01 0.01
0.02 0.03 0.02 0.01 0.02 0.02 0.02 0.02 0.02 0.01 0.01 0.01 0.01 0.01 0.01 0.01 0.01 0.01 0.01 0.01 0.01 0.01 0.00 0.00 0.00 0.01 0.01 0.01 0.01 0.02 0.02 0.02 0.03 0.02 0.02 0.02 0.02 0.02 0.01 0.01 0.02 0.01 0.02 0.03 0.03 0.02 0.02 0.01 0.01
0.01 0.03 0.03 0.02 0.02 0.01 0.01 0.02 0.01 0.01 0.00 0.01 0.00 0.00 0.01 0.01 0.01 0.01 0.01 0.01 0.01 0.01 0.01 0.01 0.01 0.01 0.01 0.02 0.02 0.02 0.02 0.03 0.04 0.03 0.03 0.03 0.02 0.02 0.01 0.02 0.02 0.02 0.01 0.02 0.03 0.03 0.03 0.02 0.01
0.02 0.03 0.04 0.03 0.03 0.02 0.01 0.02 0.01 0.00 0.00 0.00 0.00 0.00 0.00 0.01 0.01 0.01 0.01 0.01 0.01 0.01 0.01 0.01 0.01 0.01 0.01 0.02 0.03 0.04 0.05 0.06 0.07 0.06 0.05 0.03 0.02 0.01 0.01 0.01 0.02 0.02 0.02 0.02 0.02 0.03 0.03 0.03 0.02
0.01 0.02 0.03 0.03 0.02 0.01 0.01 0.01 0.01 0.00 0.00 0.00 0.00 0.00 0.00 0.01 0.01 0.01 0.01 0.01 0.02 0.02 0.01 0.01 0.01 0.00 0.01 0.02 0.03 0.03 0.04 0.06 0.06 0.06 0.06 0.05 0.04 0.03 0.02 0.01 0.02 0.02 0.03 0.04 0.03 0.02 0.02 0.02 0.02
0.01 0.01 0.01 0.02 0.01 0.01 0.01 0.01 0.00 0.00 0.00 0.00 0.00 0.00 0.00 0.01 0.01 0.00 0.00 0.01 0.01 0.01 0.01 0.00 0.01 0.01 0.01 0.02 0.03 0.04 0.03 0.04 0.04 0.04 0.04 0.06 0.07 0.06 0.04 0.02 0.02 0.02 0.04 0.05 0.05 0.03 0.02 0.02 0.01
0.01 0.01 0.01 0.01 0.01 0.01 0.01 0.01 0.00 0.01 0.00 0.00 0.00 0.00 0.00 0.00 0.00 0.00 0.00 0.00 0.00 0.01 0.00 0.01 0.01 0.01 0.03 0.05 0.05 0.06 0.04 0.03 0.02 0.04 0.03 0.02 0.03 0.05 0.07 0.06 0.03 0.03 0.04 0.05 0.05 0.05 0.03 0.02 0.01
0.01 0.01 0.01 0.01 0.01 0.01 0.00 0.00 0.00 0.00 0.00 0.00 0.00 0.00 0.00 0.00 0.00 0.00 0.00 0.01 0.01 0.01 0.01 0.01 0.01 0.03 0.04 0.05 0.05 0.04 0.02 0.02 0.01 0.02 0.02 0.02 0.02 0.02 0.03 0.05 0.04 0.05 0.05 0.05 0.05 0.04 0.03 0.02 0.01
0.01 0.01 0.00 0.01 0.01 0.01 0.01 0.00 0.00 0.00 0.00 0.00 0.00 0.00 0.00 0.00 0.00 0.01 0.01 0.01 0.02 0.02 0.02 0.02 0.02 0.02 0.02 0.02 0.02 0.02 0.02 0.02 0.02 0.01 0.01 0.02 0.01 0.01 0.02 0.03 0.03 0.05 0.06 0.07 0.07 0.06 0.04 0.03 0.01
MSLP
1006.81 1007.75 1009.16 1010.87 1012.67 1014.37 1015.77 1016.77 1017.35 1017.57 1017.56 1017.48 1017.44 1017.51 1017.69 1017.93 1018.10 1018.09 1017.83 1017.27 1016.47 1015.50 1014.51 1013.60 1012.90 1012.41 1012.13 1011.99 1011.90 1011.77 1011.53 1011.18 1010.73 1010.24 1009.77 1009.36 1009.03 1008.77 1008.54 1008.27 1007.92 1007.46 1006.90 1006.27 1005.64 1005.07 1004.63 1004.37 1004.31
1007.60 1008.85 1010.50 1012.35 1014.18 1015.77 1016.97 1017.71 1018.00 1017.94 1017.71 1017.46 1017.34 1017.39 1017.60 1017.90 1018.14 1018.20 1017.99 1017.48 1016.72 1015.80 1014.86 1014.01 1013.37 1012.95 1012.72 1012.62 1012.55 1012.43 1012.21 1011.87 1011.43 1010.98 1010.55 1010.20 1009.93 1009.73 1009.54 1009.32 1009.00 1008.57 1008.04 1007.45 1006.85 1006.31 1005.90 1005.66 1005.60
1008.48 1009.98 1011.79 1013.70 1015.48 1016.94 1017.94 1018.45 1018.51 1018.25 1017.88 1017.54 1017.38 1017.44 1017.68 1018.00 1018.27 1018.35 1018.15 1017.66 1016.92 1016.05 1015.17 1014.40 1013.84 1013.50 1013.35 1013.30 1013.28 1013.19 1012.98 1012.66 1012.25 1011.82 1011.43 1011.11 1010.88 1010.71 1010.55 1010.35 1010.06 1009.67 1009.20 1008.68 1008.16 1007.70 1007.36 1007.17 1007.13
1009.39 1011.04 1012.92 1014.80 1016.48 1017.78 1018.60 1018.94 1018.86 1018.52 1018.10 1017.76 1017.63 1017.71 1017.97 1018.30 1018.55 1018.60 1018.38 1017.87 1017.14 1016.31 1015.49 1014.81 1014.35 1014.10 1014.02 1014.04 1014.06 1014.00 1013.82 1013.52 1013.14 1012.74 1012.38 1012.09 1011.87 1011.71 1011.56 1011.37 1011.11 1010.78 1010.37 1009.94 1009.54 1009.19 1008.95 1008.83 1008.82
1010.27 1011.97 1013.80 1015.58 1017.11 1018.25 1018.94 1019.18 1019.06 1018.74 1018.38 1018.14 1018.08 1018.22 1018.50 1018.80 1019.00 1018.99 1018.70 1018.16 1017.44 1016.64 1015.90 1015.31 1014.94 1014.78 1014.77 1014.83 1014.88 1014.84 1014.68 1014.41 1014.06 1013.70 1013.37 1013.10 1012.90 1012.75 1012.60 1012.42 1012.18 1011.89 1011.57 1011.24 1010.95 1010.73 1010.59 1010.55 1010.58
1011.09 1012.72 1014.43 1016.03 1017.38 1018.38 1018.97 1019.19 1019.13 1018.93 1018.73 1018.64 1018.70 1018.92 1019.21 1019.48 1019.61 1019.51 1019.16 1018.58 1017.86 1017.11 1016.44 1015.94 1015.65 1015.56 1015.59 1015.68 1015.73 1015.69 1015.54 1015.28 1014.97 1014.65 1014.36 1014.13 1013.96 1013.81 1013.67 1013.50 1013.28 1013.03 1012.77 1012.54 1012.35 1012.24 1012.21 1012.23 1012.30
1011.82 1013.31 1014.82 1016.21 1017.37 1018.23 1018.77 1019.04 1019.11 1019.10 1019.11 1019.22 1019.43 1019.73 1020.04 1020.26 1020.31 1020.13 1019.72 1019.12 1018.42 1017.73 1017.14 1016.72 1016.50 1016.44 1016.48 1016.55 1016.57 1016.51 1016.35 1016.10 1015.83 1015.55 1015.32 1015.15 1015.02 1014.90 1014.77 1014.61 1014.41 1014.19 1013.98 1013.81 1013.71 1013.69 1013.73 1013.80 1013.89
1012.48 1013.80 1015.08 1016.24 1017.21 1017.96 1018.49 1018.85 1019.09 1019.30 1019.54 1019.85 1020.20 1020.57 1020.88 1021.06 1021.03 1020.78 1020.33 1019.73 1019.08 1018.46 1017.96 1017.62 1017.45 1017.40 1017.42 1017.43 1017.40 1017.28 1017.09 1016.86 1016.61 1016.40 1016.24 1016.14 1016.06 1015.99 1015.89 1015.74 1015.55 1015.35 1015.17 1015.04 1014.99 1015.02 1015.10 1015.21 1015.30
1013.12 1014.25 1015.31 1016.26 1017.07 1017.74 1018.28 1018.74 1019.15 1019.57 1020.02 1020.50 1020.96 1021.37 1021.67 1021.78 1021.69 1021.39 1020.92 1020.36 1019.78 1019.26 1018.85 1018.58 1018.44 1018.38 1018.35 1018.29 1018.18 1018.00 1017.77 1017.54 1017.33 1017.18 1017.10 1017.07 1017.07 1017.05 1016.98 1016.85 1016.68 1016.49 1016.32 1016.21 1016.18 1016.23 1016.33 1016.45 1016.54
1013.79 1014.75 1015.63 1016.40 1017.09 1017.71 1018.28 1018.83 1019.40 1019.99 1020.59 1021.17 1021.69 1022.10 1022.34 1022.39 1022.24 1021.90 1021.45 1020.94 1020.45 1020.03 1019.72 1019.52 1019.41 1019.33 1019.24 1019.10 1018.90 1018.66 1018.40 1018.16 1018.00 1017.91 1017.91 1017.96 1018.02 1018.06 1018.03 1017.92 1017.76 1017.58 1017.41 1017.30 1017.28 1017.32 1017.42 1017.54 1017.62
1014.52 1015.37 1016.12 1016.78 1017.39 1017.98 1018.58 1019.21 1019.88 1020.57 1021.25 1021.87 1022.38 1022.74 1022.91 1022.88 1022.66 1022.31 1021.88 1021.44 1021.05 1020.74 1020.52 1020.38 1020.29 1020.19 1020.04 1019.84 1019.57 1019.28 1018.99 1018.77 1018.64 1018.61 1018.67 1018.79 1018.91 1019.00 1019.00 1018.92 1018.78 1018.60 1018.44 1018.33 1018.30 1018.34 1018.43 1018.53 1018.61
1015.36 1016.15 1016.82 1017.42 1018.00 1018.58 1019.22 1019.90 1020.62 1021.35 1022.04 1022.62 1023.06 1023.32 1023.39 1023.27 1023.00 1022.63 1022.23 1021.86 1021.56 1021.34 1021.21 1021.12 1021.04 1020.93 1020.75 1020.50 1020.20 1019.88 1019.59 1019.39 1019.29 1019.31 1019.42 1019.59 1019.75 1019.87 1019.90 1019.85 1019.72 1019.56 1019.41 1019.31 1019.28 1019.31 1019.39 1019.49 1019.56
1016.31 1017.08 1017.73 1018.32 1018.89 1019.49 1020.15 1020.85 1021.58 1022.29 1022.92 1023.42 1023.75 1023.89 1023.84 1023.62 1023.30 1022.92 1022.55 1022.24 1022.01 1021.86 1021.78 1021.73 1021.67 1021.55 1021.37 1021.11 1020.81 1020.50 1020.24 1020.06 1020.00 1020.05 1020.19 1020.37 1020.54 1020.67 1020.72 1020.68 1020.58 1020.45 1020.33 1020.25 1020.23 1020.27 1020.35 1020.44 1020.52
1017.35 1018.13 1018.79 1019.39 1019.99 1020.62 1021.29 1021.99 1022.69 1023.34 1023.87 1024.26 1024.46 1024.47 1024.31 1024.02 1023.65 1023.26 1022.91 1022.64 1022.45 1022.34 1022.28 1022.25 1022.20 1022.10 1021.93 1021.70 1021.43 1021.17 1020.96 1020.82 1020.79 1020.85 1020.98 1021.15 1021.30 1021.42 1021.46 1021.44 1021.37 1021.28 1021.20 1021.15 1021.16 1021.22 1021.31 1021.41 1021.49
1018.43 1019.23 1019.91 1020.55 1021.18 1021.83 1022.51 1023.20 1023.85 1024.41 1024.84 1025.10 1025.18 1025.08 1024.84 1024.49 1024.10 1023.71 1023.38 1023.12 1022.94 1022.84 1022.79 1022.75 1022.70 1022.61 1022.47 1022.29 1022.10 1021.91 1021.76 1021.67 1021.66 1021.71 1021.81 1021.93 1022.04 1022.11 1022.14 1022.12 1022.08 1022.03 1022.00 1022.01 1022.06 1022.14 1022.25 1022.36 1022.44
1019.53 1020.32 1021.03 1021.69 1022.36 1023.04 1023.72 1024.38 1024.98 1025.45 1025.78 1025.93 1025.91 1025.74 1025.44 1025.08 1024.68 1024.31 1023.99 1023.73 1023.54 1023.42 1023.33 1023.27 1023.21 1023.13 1023.04 1022.93 1022.82 1022.71 1022.63 1022.59 1022.58 1022.61 1022.65 1022.70 1022.74 1022.76 1022.75 1022.73 1022.72 1022.71 1022.74 1022.80 1022.89 1023.00 1023.12 1023.24 1023.33
1020.59 1021.37 1022.09 1022.79 1023.48 1024.19 1024.87 1025.50 1026.04 1026.43 1026.66 1026.73 1026.63 1026.41 1026.10 1025.75 1025.38 1025.03 1024.73 1024.47 1024.26 1024.09 1023.96 1023.86 1023.77 1023.70 1023.65 1023.61 1023.58 1023.56 1023.55 1023.54 1023.53 1023.51 1023.49 1023.45 1023.40 1023.34 1023.30 1023.27 1023.27 1023.31 1023.38 1023.48 1023.61 1023.74 1023.88 1024.00 1024.10
1021.60 1022.35 1023.08 1023.81 1024.55 1025.28 1025.96 1026.56 1027.03 1027.34 1027.49 1027.48 1027.33 1027.09 1026.79 1026.47 1026.14 1025.84 1025.56 1025.30 1025.06 1024.84 1024.66 1024.50 1024.38 1024.31 1024.29 1024.31 1024.35 1024.41 1024.45 1024.46 1024.44 1024.37 1024.27 1024.13 1023.99 1023.87 1023.78 1023.73 1023.74 1023.80 1023.91 1024.04 1024.19 1024.33 1024.46 1024.58 1024.68
1022.53 1023.27 1024.03 1024.80 1025.58 1026.34 1027.02 1027.59 1028.00 1028.22 1028.28 1028.19 1028.00 1027.74 1027.45 1027.17 1026.90 1026.64 1026.39 1026.14 1025.88 1025.62 1025.38 1025.17 1025.02 1024.94 1024.93 1024.99 1025.09 1025.20 1025.28 1025.31 1025.26 1025.14 1024.96 1024.74 1024.52 1024.32 1024.18 1024.12 1024.12 1024.20 1024.32 1024.46 1024.61 1024.74 1024.86 1024.96 1025.05
1023.40 1024.16 1024.96 1025.79 1026.63 1027.43 1028.12 1028.65 1028.98 1029.11 1029.07 1028.89 1028.63 1028.34 1028.05 1027.80 1027.58 1027.37 1027.15 1026.92 1026.65 1026.35 1026.07 1025.81 1025.63 1025.53 1025.53 1025.62 1025.75 1025.89 1025.99 1026.02 1025.95 1025.78 1025.54 1025.25 1024.96 1024.71 1024.52 1024.43 1024.43 1024.50 1024.61 1024.74 1024.87 1024.98 1025.06 1025.14 1025.22
1024.22 1025.01 1025.88 1026.81 1027.73 1028.58 1029.27 1029.76 1030.02 1030.04 1029.87 1029.58 1029.23 1028.88 1028.57 1028.33 1028.13 1027.96 1027.78 1027.56 1027.29 1026.98 1026.67 1026.38 1026.17 1026.06 1026.05 1026.14 1026.29 1026.44 1026.55 1026.58 1026.48 1026.28 1025.99 1025.65 1025.31 1025.02 1024.80 1024.69 1024.66 1024.71 1024.80 1024.90 1024.99 1025.06 1025.11 1025.15 1025.22
1024.97 1025.83 1026.80 1027.83 1028.85 1029.75 1030.46 1030.92 1031.09 1030.99 1030.69 1030.26 1029.80 1029.36 1029.00 1028.73 1028.54 1028.39 1028.24 1028.04 1027.78 1027.47 1027.15 1026.85 1026.62 1026.49 1026.47 1026.55 1026.70 1026.85 1026.96 1026.97 1026.86 1026.64 1026.32 1025.95 1025.59 1025.27 1025.03 1024.89 1024.84 1024.86 1024.92 1024.98 1025.02 1025.04 1025.04 1025.05 1025.09
1025.64 1026.58 1027.66 1028.80 1029.92 1030.88 1031.61 1032.03 1032.13 1031.92 1031.48 1030.92 1030.33 1029.79 1029.36 1029.05 1028.84 1028.69 1028.55 1028.37 1028.14 1027.84 1027.52 1027.21 1026.97 1026.83 1026.80 1026.86 1026.99 1027.13 1027.23 1027.23 1027.11 1026.87 1026.55 1026.17 1025.80 1025.46 1025.21 1025.05 1024.98 1024.96 1024.98 1024.99 1024.98 1024.95 1024.91 1024.88 1024.90
1026.21 1027.21 1028.38 1029.63 1030.82 1031.85 1032.60 1033.00 1033.03 1032.73 1032.18 1031.50 1030.80 1030.17 1029.66 1029.30 1029.07 1028.92 1028.79 1028.62 1028.40 1028.13 1027.81 1027.51 1027.27 1027.11 1027.06 1027.10 1027.21 1027.33 1027.40 1027.39 1027.26 1027.03 1026.70 1026.33 1025.95 1025.62 1025.36 1025.18 1025.07 1025.02 1024.99 1024.96 1024.91 1024.84 1024.76 1024.70 1024.69
1026.63 1027.67 1028.90 1030.20 1031.46 1032.53 1033.29 1033.69 1033.68 1033.33 1032.72 1031.96 1031.19 1030.50 1029.94 1029.54 1029.29 1029.13 1029.00 1028.85 1028.65 1028.39 1028.09 1027.80 1027.54 1027.38 1027.30 1027.32 1027.39 1027.48 1027.53 1027.50 1027.37 1027.13 1026.81 1026.44 1026.07 1025.74 1025.46 1025.26 1025.13 1025.04 1024.97 1024.90 1024.81 1024.71 1024.61 1024.53 1024.50
1026.89 1027.92 1029.15 1030.48 1031.75 1032.83 1033.60 1034.00 1034.00 1033.64 1033.02 1032.26 1031.48 1030.77 1030.21 1029.81 1029.55 1029.40 1029.27 1029.13 1028.94 1028.69 1028.41 1028.11 1027.86 1027.67 1027.58 1027.56 1027.59 1027.64 1027.66 1027.61 1027.46 1027.22 1026.90 1026.53 1026.16 1025.82 1025.53 1025.31 1025.15 1025.02 1024.92 1024.82 1024.70 1024.58 1024.46 1024.37 1024.32
1026.99 1027.97 1029.15 1030.43 1031.67 1032.73 1033.50 1033.91 1033.94 1033.62 1033.06 1032.36 1031.64 1030.99 1030.48 1030.11 1029.88 1029.74 1029.63 1029.50 1029.32 1029.07 1028.79 1028.50 1028.24 1028.04 1027.91 1027.86 1027.85 1027.86 1027.84 1027.75 1027.58 1027.32 1027.00 1026.63 1026.25 1025.89 1025.58 1025.33 1025.13 1024.98 1024.84 1024.71 1024.58 1024.45 1024.32 1024.22 1024.15
1026.99 1027.86 1028.95 1030.13 1031.29 1032.29 1033.04 1033.46 1033.54 1033.30 1032.85 1032.28 1031.68 1031.15 1030.73 1030.44 1030.26 1030.16 1030.06 1029.94 1029.77 1029.54 1029.26 1028.96 1028.69 1028.48 1028.32 1028.23 1028.19 1028.15 1028.08 1027.96 1027.76 1027.48 1027.13 1026.74 1026.35 1025.97 1025.63 1025.35 1025.11 1024.92 1024.75 1024.60 1024.45 1024.31 1024.18 1024.06 1023.98
1026.95 1027.70 1028.64 1029.69 1030.72 1031.63 1032.33 1032.75 1032.88 1032.76 1032.45 1032.04 1031.62 1031.24 1030.96 1030.78 1030.67 1030.61 1030.55 1030.45 1030.28 1030.05 1029.78 1029.48 1029.21 1028.98 1028.81 1028.69 1028.61 1028.52 1028.42 1028.25 1028.01 1027.70 1027.33 1026.92 1026.49 1026.09 1025.72 1025.40 1025.12 1024.89 1024.69 1024.51 1024.34 1024.18 1024.03 1023.90 1023.79
1026.97 1027.59 1028.38 1029.25 1030.13 1030.92 1031.54 1031.94 1032.13 1032.11 1031.95 1031.72 1031.48 1031.27 1031.14 1031.08 1031.06 1031.06 1031.02 1030.94 1030.79 1030.57 1030.30 1030.02 1029.76 1029.53 1029.35 1029.21 1029.09 1028.97 1028.83 1028.62 1028.35 1028.00 1027.60 1027.16 1026.72 1026.29 1025.88 1025.53 1025.21 1024.94 1024.69 1024.47 1024.26 1024.07 1023.89 1023.73 1023.59
Thickness
5790 5790 5786 5773 5747 5725 5720 5730 5740 5744 5747 5753 5757 5753 5744 5738 5733 5728 5750 5759 5761 5761 5762 5763 5765 5766 5767 5768 5769 5770 5771 5773 5775 5774 5774 5774 5774 5775 5775 5775 5775 5775 5774 5774 5774 5774 5774 5774 5773
5789 5787 5776 5757 5729 5709 5716 5732 5738 5746 5752 5756 5755 5751 5743 5739 5746 5746 5751 5757 5759 5760 5760 5761 5763 5764 5765 5766 5767 5768 5769 5769 5770 5771 5771 5771 5771 5772 5772 5772 5772 5772 5771 5771 5770 5770 5770 5770 5770
5787 5783 5760 5739 5722 5713 5719 5733 5741 5750 5758 5756 5749 5748 5742 5739 5746 5748 5753 5757 5757 5757 5758 5759 5760 5761 5762 5763 5764 5765 5766 5766 5767 5767 5768 5768 5768 5768 5768 5768 5768 5768 5768 5768 5767 5766 5766 5766 5766
5779 5765 5751 5730 5720 5727 5731 5737 5745 5747 5751 5753 5747 5738 5742 5750 5750 5752 5754 5755 5755 5754 5755 5756 5758 5758 5759 5760 5761 5762 5763 5763 5763 5764 5764 5765 5765 5765 5765 5765 5765 5765 5765 5764 5763 5763 5762 5762 5762
5771 5751 5731 5718 5721 5731 5738 5744 5747 5743 5743 5744 5743 5732 5734 5748 5753 5753 5752 5752 5751 5751 5752 5753 5754 5755 5756 5757 5758 5758 5759 5760 5760 5760 5760 5760 5761 5761 5761 5761 5761 5761 5761 5760 5759 5759 5758 5758 5758
5754 5740 5717 5710 5720 5732 5739 5746 5745 5741 5739 5741 5739 5730 5731 5745 5748 5749 5751 5750 5750 5749 5749 5750 5750 5752 5752 5753 5753 5754 5755 5756 5756 5756 5756 5756 5757 5757 5757 5757 5757 5757 5757 5756 5756 5755 5755 5754 5754
5745 5730 5717 5716 5719 5726 5738 5747 5742 5737 5736 5740 5742 5728 5729 5739 5745 5748 5748 5747 5746 5746 5746 5746 5747 5747 5748 5748 5749 5750 5750 5751 5751 5751 5752 5752 5753 5753 5753 5753 5753 5753 5753 5752 5752 5751 5751 5750 5749
5753 5732 5719 5717 5719 5724 5741 5747 5747 5742 5739 5748 5745 5728 5726 5737 5744 5746 5744 5743 5742 5743 5743 5743 5743 5744 5744 5744 5745 5745 5746 5746 5746 5747 5747 5748 5749 5749 5749 5749 5749 5749 5748 5748 5747 5747 5746 5745 5745
5755 5724 5712 5719 5722 5728 5742 5742 5744 5749 5743 5743 5743 5739 5739 5742 5742 5739 5737 5736 5737 5738 5739 5740 5740 5740 5740 5741 5741 5741 5741 5741 5742 5742 5743 5743 5744 5744 5744 5744 5744 5744 5744 5743 5742 5742 5741 5740 5739
5741 5717 5723 5735 5736 5735 5740 5740 5741 5737 5731 5730 5733 5737 5740 5739 5737 5733 5730 5729 5731 5732 5734 5736 5736 5736 5737 5737 5737 5737 5737 5737 5737 5738 5739 5739 5739 5740 5740 5740 5740 5739 5739 5738 5737 5737 5736 5735 5734
5740 5727 5735 5740 5744 5743 5739 5738 5741 5730 5721 5726 5727 5729 5733 5733 5731 5729 5728 5729 5729 5731 5732 5732 5733 5733 5734 5734 5733 5733 5733 5733 5733 5734 5734 5735 5735 5735 5735 5735 5734 5734 5733 5733 5732 5731 5730 5730 5729
5738 5738 5742 5742 5746 5743 5738 5736 5733 5730 5728 5735 5735 5734 5731 5728 5727 5727 5726 5727 5728 5729 5729 5731 5731 5730 5730 5730 5730 5729 5729 5729 5729 5730 5730 5730 5730 5729 5729 5729 5728 5728 5728 5727 5727 5726 5725 5725 5724
5734 5735 5741 5743 5744 5741 5738 5732 5729 5728 5735 5736 5735 5731 5728 5726 5725 5727 5728 5727 5727 5726 5726 5728 5728 5727 5727 5727 5726 5726 5725 5725 5725 5726 5726 5726 5725 5724 5724 5723 5723 5723 5723 5722 5721 5720 5720 5720 5719
5736 5736 5735 5738 5738 5738 5731 5728 5727 5724 5732 5731 5728 5725 5724 5724 5724 5723 5723 5723 5723 5723 5724 5725 5725 5724 5724 5723 5722 5722 5722 5722 5722 5722 5722 5722 5721 5720 5720 5719 5718 5718 5718 5717 5717 5716 5715 5714 5714
5739 5728 5725 5729 5732 5731 5728 5715 5719 5726 5728 5724 5723 5721 5721 5721 5722 5721 5722 5722 5721 5721 5722 5721 5721 5721 5720 5720 5719 5719 5719 5719 5718 5718 5718 5718 5717 5717 5716 5715 5714 5714 5714 5713 5712 5711 5710 5709 5708
5729 5715 5705 5719 5727 5728 5718 5700 5717 5725 5723 5718 5717 5717 5717 5718 5720 5721 5721 5721 5720 5720 5719 5718 5719 5717 5716 5716 5716 5715 5715 5715 5714 5714 5714 5713 5713 5713 5712 5711 5710 5710 5709 5708 5707 5705 5704 5702 5702
5709 5699 5700 5712 5725 5724 5715 5704 5717 5722 5720 5715 5714 5713 5714 5714 5716 5718 5719 5719 5718 5717 5716 5715 5715 5714 5713 5712 5712 5711 5711 5710 5710 5710 5710 5709 5709 5709 5708 5707 5706 5706 5705 5704 5703 5700 5699 5697 5696
5698 5699 5702 5705 5718 5718 5710 5707 5714 5718 5718 5713 5711 5710 5710 5711 5713 5716 5717 5717 5716 5715 5714 5712 5711 5710 5710 5708 5707 5706 5705 5705 5706 5706 5705 5705 5705 5704 5704 5703 5702 5702 5700 5699 5698 5696 5695 5693 5692
5711 5704 5700 5707 5720 5714 5706 5706 5710 5715 5714 5710 5708 5708 5708 5710 5714 5715 5715 5714 5712 5711 5710 5709 5707 5706 5706 5703 5701 5699 5698 5699 5700 5701 5701 5701 5700 5700 5700 5699 5698 5697 5695 5694 5693 5692 5689 5687 5687
5711 5702 5700 5708 5718 5712 5703 5703 5709 5712 5713 5713 5710 5708 5707 5708 5708 5709 5710 5709 5708 5707 5706 5705 5704 5703 5702 5700 5698 5697 5695 5695 5695 5696 5696 5696 5696 5696 5696 5695 5693 5692 5691 5689 5689 5688 5684 5683 5683
5706 5702 5701 5701 5709 5710 5700 5693 5700 5707 5712 5712 5712 5710 5709 5708 5705 5704 5704 5704 5704 5703 5702 5703 5700 5699 5698 5697 5695 5694 5692 5691 5690 5689 5690 5691 5692 5692 5691 5690 5690 5689 5687 5685 5684 5684 5681 5678 5677
5698 5712 5710 5706 5694 5684 5693 5670 5688 5698 5701 5704 5705 5704 5705 5706 5705 5703 5702 5700 5700 5700 5701 5700 5698 5696 5694 5693 5690 5687 5685 5682 5683 5684 5685 5686 5687 5687 5687 5686 5686 5685 5684 5682 5681 5680 5679 5677 5673
5709 5717 5711 5704 5692 5682 5684 5672 5679 5693 5692 5697 5702 5704 5704 5705 5704 5702 5701 5700 5698 5698 5697 5696 5694 5692 5690 5688 5686 5683 5680 5679 5679 5680 5680 5681 5681 5682 5682 5682 5682 5681 5680 5678 5678 5676 5675 5673 5671
5718 5708 5698 5687 5678 5666 5679 5672 5672 5685 5695 5698 5701 5703 5702 5703 5702 5700 5699 5697 5695 5694 5692 5691 5689 5686 5685 5683 5681 5679 5676 5675 5674 5673 5673 5673 5674 5676 5677 5677 5677 5676 5675 5674 5674 5673 5671 5670 5668
5704 5681 5662 5659 5653 5659 5678 5672 5674 5695 5704 5704 5702 5701 5701 5700 5698 5696 5693 5691 5690 5688 5687 5686 5683 5681 5680 5678 5676 5674 5673 5671 5670 5669 5668 5667 5667 5669 5670 5672 5672 5671 5671 5670 5670 5668 5667 5665 5663
5695 5682 5659 5649 5648 5656 5670 5665 5680 5702 5706 5707 5705 5702 5699 5696 5695 5693 5691 5689 5687 5685 5683 5681 5678 5676 5675 5674 5672 5671 5669 5667 5666 5666 5665 5664 5663 5664 5665 5666 5667 5667 5666 5666 5665 5663 5662 5661 5659
5690 5681 5681 5663 5660 5652 5657 5669 5685 5698 5697 5699 5698 5696 5693 5692 5691 5689 5687 5685 5683 5681 5679 5677 5674 5671 5670 5669 5668 5667 5665 5664 5662 5661 5661 5661 5660 5661 5661 5661 5661 5661 5661 5661 5659 5658 5656 5655 5653
5698 5688 5668 5659 5648 5642 5653 5661 5667 5682 5687 5691 5691 5689 5689 5688 5686 5685 5683 5681 5679 5677 5675 5673 5670 5668 5666 5665 5663 5663 5661 5660 5658 5657 5656 5656 5656 5656 5656 5655 5655 5655 5655 5655 5654 5652 5651 5649 5647
5685 5682 5671 5658 5655 5643 5640 5655 5686 5686 5688 5687 5687 5688 5686 5684 5682 5680 5678 5676 5674 5672 5669 5667 5664 5662 5661 5660 5658 5657 5656 5655 5653 5652 5651 5651 5650 5650 5650 5650 5650 5649 5649 5649 5648 5647 5646 5643 5641
5686 5680 5668 5654 5652 5650 5641 5654 5689 5688 5688 5686 5684 5683 5683 5680 5679 5676 5673 5670 5667 5664 5662 5660 5658 5657 5656 5655 5653 5652 5651 5650 5648 5647 5646 5646 5645 5644 5644 5644 5643 5643 5643 5643 5642 5641 5640 5638 5636